• în Republica Moldova
  • Lista ţărilor
  • Pe 7 zile
  • Temperatura apei
  • Hartă satelitară
  • Meteo pe hartă
  • Widget-uri
  • user-avatar
    Intrare

    Meteo pe oră la Yulara

    Astăzi, 21 Iunie, Joi

    Timp Temperatura Precipitaţii Vânt Presiune Umiditate
    00:00 +8°C° 0 mm 4 m/s 724 mmHg 46%
    01:00 +8°C° 0 mm 4 m/s 724 mmHg 51%
    02:00 +7°C° 0 mm 4 m/s 724 mmHg 56%
    03:00 +7°C° 0 mm 4 m/s 724 mmHg 61%
    04:00 +7°C° 0 mm 4 m/s 724 mmHg 66%
    05:00 +6°C° 0 mm 4 m/s 724 mmHg 71%
    06:00 +6°C° 0 mm 4 m/s 724 mmHg 76%
    07:00 +7°C° 0 mm 4 m/s 725 mmHg 71%
    08:00 +9°C° 0 mm 5 m/s 725 mmHg 67%
    09:00 +12°C° 0 mm 5 m/s 725 mmHg 59%
    10:00 +13°C° 0 mm 5 m/s 725 mmHg 53%
    11:00 +15°C° 0 mm 5 m/s 725 mmHg 46%
    12:00 +16°C° 0 mm 5 m/s 724 mmHg 39%
    13:00 +17°C° 0 mm 5 m/s 724 mmHg 36%
    14:00 +17°C° 0 mm 5 m/s 724 mmHg 33%
    15:00 +19°C° 0 mm 4 m/s 723 mmHg 31%
    16:00 +18°C° 0 mm 4 m/s 723 mmHg 34%
    17:00 +15°C° 0 mm 4 m/s 723 mmHg 37%
    18:00 +14°C° 0 mm 3 m/s 723 mmHg 41%
    19:00 +13°C° 0 mm 4 m/s 723 mmHg 44%
    20:00 +12°C° 0 mm 4 m/s 724 mmHg 47%
    21:00 +11°C° 0 mm 4 m/s 724 mmHg 51%
    22:00 +11°C° 0 mm 4 m/s 724 mmHg 54%
    23:00 +10°C° 0 mm 4 m/s 724 mmHg 58%

    Mâine, 22 Iunie, Vineri

    Timp Temperatura Precipitaţii Vânt Presiune Umiditate
    00:00 +10°C° 0 mm 4 m/s 724 mmHg 62%
    01:00 +8°C° 0 mm 4 m/s 724 mmHg 66%
    02:00 +8°C° 0 mm 4 m/s 724 mmHg 70%
    03:00 +7°C° 0 mm 4 m/s 724 mmHg 74%
    04:00 +7°C° 0 mm 4 m/s 724 mmHg 76%
    05:00 +7°C° 0 mm 3 m/s 724 mmHg 79%
    06:00 +7°C° 0 mm 3 m/s 724 mmHg 81%
    07:00 +7°C° 0 mm 4 m/s 725 mmHg 74%
    08:00 +10°C° 0 mm 4 m/s 725 mmHg 67%
    09:00 +11°C° 0 mm 4 m/s 725 mmHg 60%
    10:00 +13°C° 0 mm 4 m/s 725 mmHg 54%
    11:00 +14°C° 0 mm 4 m/s 725 mmHg 47%
    12:00 +17°C° 0 mm 4 m/s 724 mmHg 41%
    13:00 +17°C° 0 mm 4 m/s 724 mmHg 37%
    14:00 +18°C° 0 mm 4 m/s 723 mmHg 34%
    15:00 +18°C° 0 mm 4 m/s 723 mmHg 31%
    16:00 +17°C° 0 mm 4 m/s 723 mmHg 34%
    17:00 +15°C° 0 mm 4 m/s 723 mmHg 36%
    18:00 +13°C° 0 mm 3 m/s 723 mmHg 39%
    19:00 +13°C° 0 mm 4 m/s 724 mmHg 41%
    20:00 +12°C° 0 mm 4 m/s 724 mmHg 43%
    21:00 +11°C° 0 mm 4 m/s 724 mmHg 46%
    22:00 +10°C° 0 mm 4 m/s 724 mmHg 47%
    23:00 +10°C° 0 mm 4 m/s 724 mmHg 49%

    Poimâine, 23 Iunie, Sâmbătă

    Timp Temperatura Precipitaţii Vânt Presiune Umiditate
    00:00 +8°C° 0 mm 4 m/s 725 mmHg 51%
    01:00 +8°C° 0 mm 4 m/s 724 mmHg 54%
    02:00 +7°C° 0 mm 4 m/s 724 mmHg 57%
    03:00 +7°C° 0 mm 4 m/s 724 mmHg 59%
    04:00 +6°C° 0 mm 4 m/s 724 mmHg 61%
    05:00 +6°C° 0 mm 4 m/s 724 mmHg 64%
    06:00 +5°C° 0 mm 4 m/s 724 mmHg 66%
    07:00 +7°C° 0 mm 4 m/s 725 mmHg 60%
    08:00 +8°C° 0 mm 4 m/s 725 mmHg 54%
    09:00 +10°C° 0 mm 5 m/s 726 mmHg 47%
    10:00 +12°C° 0 mm 5 m/s 726 mmHg 43%
    11:00 +14°C° 0 mm 5 m/s 725 mmHg 38%
    12:00 +16°C° 0 mm 6 m/s 725 mmHg 33%
    13:00 +16°C° 0 mm 6 m/s 724 mmHg 30%
    14:00 +17°C° 0 mm 6 m/s 724 mmHg 28%
    15:00 +19°C° 0 mm 6 m/s 723 mmHg 25%
    16:00 +16°C° 0 mm 5 m/s 723 mmHg 28%
    17:00 +15°C° 0 mm 5 m/s 723 mmHg 31%
    18:00 +13°C° 0 mm 4 m/s 723 mmHg 34%
    19:00 +12°C° 0 mm 4 m/s 724 mmHg 36%
    20:00 +11°C° 0 mm 4 m/s 724 mmHg 37%
    21:00 +11°C° 0 mm 4 m/s 725 mmHg 39%
    22:00 +10°C° 0 mm 4 m/s 725 mmHg 41%
    23:00 +8°C° 0 mm 4 m/s 725 mmHg 43%

    24 Iunie, Duminică

    Timp Temperatura Precipitaţii Vânt Presiune Umiditate
    00:00 +8°C° 0 mm 4 m/s 725 mmHg 44%
    01:00 +7°C° 0 mm 4 m/s 725 mmHg 46%
    02:00 +7°C° 0 mm 4 m/s 725 mmHg 47%
    03:00 +6°C° 0 mm 4 m/s 725 mmHg 48%
    04:00 +6°C° 0 mm 4 m/s 725 mmHg 48%
    05:00 +5°C° 0 mm 4 m/s 725 mmHg 48%
    06:00 +5°C° 0 mm 4 m/s 725 mmHg 48%
    07:00 +7°C° 0 mm 4 m/s 725 mmHg 44%
    08:00 +8°C° 0 mm 4 m/s 726 mmHg 39%
    09:00 +10°C° 0 mm 5 m/s 726 mmHg 35%
    10:00 +13°C° 0 mm 5 m/s 726 mmHg 31%
    11:00 +14°C° 0 mm 6 m/s 725 mmHg 27%
    12:00 +16°C° 0 mm 6 m/s 725 mmHg 23%
    13:00 +17°C° 0 mm 6 m/s 724 mmHg 22%
    14:00 +17°C° 0 mm 6 m/s 724 mmHg 20%
    15:00 +19°C° 0 mm 6 m/s 723 mmHg 19%
    16:00 +16°C° 0 mm 6 m/s 723 mmHg 21%
    17:00 +15°C° 0 mm 5 m/s 723 mmHg 24%
    18:00 +13°C° 0 mm 4 m/s 723 mmHg 27%
    19:00 +12°C° 0 mm 4 m/s 724 mmHg 28%
    20:00 +11°C° 0 mm 4 m/s 724 mmHg 30%
    21:00 +10°C° 0 mm 4 m/s 725 mmHg 32%
    22:00 +10°C° 0 mm 4 m/s 725 mmHg 34%
    23:00 +8°C° 0 mm 4 m/s 725 mmHg 36%

    25 Iunie, Luni

    Timp Temperatura Precipitaţii Vânt Presiune Umiditate
    00:00 +7°C° 0 mm 4 m/s 725 mmHg 38%
    01:00 +7°C° 0 mm 4 m/s 725 mmHg 40%
    02:00 +7°C° 0 mm 4 m/s 725 mmHg 42%
    03:00 +6°C° 0 mm 4 m/s 724 mmHg 45%
    04:00 +6°C° 0 mm 4 m/s 725 mmHg 46%
    05:00 +6°C° 0 mm 4 m/s 725 mmHg 48%
    06:00 +5°C° 0 mm 4 m/s 725 mmHg 49%
    07:00 +7°C° 0 mm 4 m/s 725 mmHg 45%
    08:00 +8°C° 0 mm 4 m/s 726 mmHg 41%
    09:00 +10°C° 0 mm 5 m/s 726 mmHg 37%
    10:00 +13°C° 0 mm 5 m/s 726 mmHg 32%
    11:00 +15°C° 0 mm 5 m/s 725 mmHg 27%
    12:00 +16°C° 0 mm 5 m/s 725 mmHg 23%
    13:00 +17°C° 0 mm 5 m/s 724 mmHg 21%
    14:00 +19°C° 0 mm 5 m/s 724 mmHg 20%
    15:00 +19°C° 0 mm 5 m/s 723 mmHg 18%
    16:00 +16°C° 0 mm 5 m/s 723 mmHg 21%
    17:00 +15°C° 0 mm 4 m/s 723 mmHg 24%
    18:00 +13°C° 0 mm 4 m/s 724 mmHg 26%
    19:00 +13°C° 0 mm 4 m/s 724 mmHg 29%
    20:00 +12°C° 0 mm 4 m/s 725 mmHg 33%
    21:00 +10°C° 0 mm 5 m/s 725 mmHg 36%
    22:00 +9°C° 0 mm 5 m/s 725 mmHg 46%
    23:00 +10°C° 0 mm 4 m/s 725 mmHg 56%

    26 Iunie, Marţi

    Timp Temperatura Precipitaţii Vânt Presiune Umiditate
    00:00 +8°C° 0 mm 4 m/s 726 mmHg 65%
    01:00 +7°C° 0 mm 4 m/s 725 mmHg 73%
    02:00 +7°C° 0 mm 4 m/s 725 mmHg 80%
    03:00 +6°C° 0 mm 4 m/s 725 mmHg 88%
    04:00 +6°C° 0 mm 4 m/s 726 mmHg 88%
    05:00 +5°C° 0 mm 4 m/s 726 mmHg 89%
    06:00 +5°C° 0 mm 4 m/s 726 mmHg 89%
    07:00 +6°C° 0 mm 4 m/s 726 mmHg 82%
    08:00 +7°C° 0 mm 5 m/s 727 mmHg 75%
    09:00 +9°C° 0 mm 6 m/s 727 mmHg 68%
    10:00 +11°C° 0 mm 6 m/s 727 mmHg 58%
    11:00 +14°C° 0 mm 7 m/s 726 mmHg 48%
    12:00 +16°C° 0 mm 7 m/s 726 mmHg 38%
    13:00 +17°C° 0 mm 7 m/s 726 mmHg 35%
    14:00 +17°C° 0 mm 7 m/s 725 mmHg 32%
    15:00 +18°C° 0 mm 7 m/s 725 mmHg 29%
    16:00 +16°C° 0 mm 6 m/s 725 mmHg 32%
    17:00 +15°C° 0 mm 5 m/s 725 mmHg 35%
    18:00 +13°C° 0 mm 5 m/s 725 mmHg 38%
    19:00 +12°C° 0 mm 5 m/s 726 mmHg 40%
    20:00 +10°C° 0 mm 5 m/s 726 mmHg 42%
    21:00 +9°C° 0 mm 5 m/s 727 mmHg 43%
    22:00 +9°C° 0 mm 5 m/s 727 mmHg 45%
    23:00 +8°C° 0 mm 5 m/s 727 mmHg 46%
    Arată mai mult